User: anonymous   Login
Location: Caltech
(34.1382°N, 118.1253°W)
Time: 16:47:39
(UTC-07:00)
Language:

Meteor 1-11 Rocket - Orbit

View from above orbital plane
View from above orbital plane
View from above satellite
View from above satellite

Ground track
Ground track

The orbit data is extracted from the following two-line orbital elements,

1  5918U 72022B   16151.94746910 -.00000024 +00000-0 -21809-4 0  9992
2  5918 081.2358 335.6341 0057843 321.9393 037.7695 14.05801746264021
Epoch (UTC): 30 May 2016 22:44:21
Eccentricity: 0.0057843
inclination: 81.2358°
perigee height: 832 km
apogee height: 916 km
right ascension of ascending node: 335.6341°
argument of perigee: 321.9393°
revolutions per day: 14.05801746
mean anomaly at epoch: 37.7695°
orbit number at epoch: 26402

The dashed part of the orbit path shows where the satellite is in the earth's shadow,  

DLR